Overview Statistics Trail Chart Weather Telemetry Raw packets
 

This is the latest recevied weather packets stored in our database for station/object KC3JUG-13. If no packets are shown the sender has not sent any weather packets the latest 10 day(s).

<< 12 13 14 15 16 17 18 >>
Time Temp. Humidity Pressure Rain* Wind** Luminosity Snow
1788379408 21.67° C 99% 1020.1 hPa 0 mm - - -
1788378628 21.67° C 99% 1020.3 hPa 0 mm - - -
1788377848 21.67° C 99% 1020.2 hPa 0 mm - - -
1788377068 21.11° C 99% 1019.8 hPa 0.25 mm - - -
1788376288 21.11° C 99% 1019.8 hPa 0.25 mm - - -
1788375508 21.11° C 99% 1019.7 hPa 0.25 mm - - -
1788374728 21.11° C 99% 1019.7 hPa 1.02 mm - - -
1788373948 21.11° C 99% 1020.1 hPa 1.52 mm - - -
1788373168 21.11° C 99% 1020.5 hPa 2.03 mm - - -
1788372388 20.56° C 99% 1020.6 hPa 2.54 mm - - -
1788371608 20.56° C 99% 1020.7 hPa 3.05 mm - - -
1788370849 20.56° C 99% 1021.1 hPa 2.54 mm - - -
1788370048 20.56° C 99% 1020.6 hPa 2.03 mm - - -
1788369268 20.56° C 99% 1020.7 hPa 1.52 mm - - -
1788368488 21.11° C 99% 1022.6 hPa 0.51 mm - - -
1788367708 21.11° C 99% 1022.2 hPa 0 mm - - -
1788366928 21.11° C 99% 1022.1 hPa 0 mm - - -
1788366148 21.11° C 99% 1021.8 hPa 0 mm - - -
1788365368 21.11° C 99% 1021.4 hPa 0 mm - - -
1788364588 21.11° C 99% 1021.4 hPa 0 mm - - -
1788363808 21.11° C 99% 1020.9 hPa 0 mm - - -
1788363028 21.11° C 99% 1020.8 hPa 0 mm - - -
1788362248 21.11° C 99% 1020.8 hPa 0 mm - - -
1788361468 21.11° C 99% 1021 hPa 0 mm - - -
1788360688 21.11° C 99% 1021.4 hPa 0 mm - - -

* Rain latest hour (hover to see other rain measurements)
** Current wind speed in m/s (hover to see current wind gust speed)